CW6975 Weather Reports


Display with metric or nautical units.
time (UTC)temp
F
wind
direction
speed
MPH
gust
MPH
rain 1hr
in
rain 24hr
in
rain mn
in
humidity
%
barometer
mb
20200712030341 63 275 0.0 2.0 0.00 0.00 0.00 77 1020.0
20200712024836 63 275 0.0 1.0 0.00 0.00 0.00 77 1019.9
20200712023333 63 275 0.0 2.0 0.00 0.00 0.00 77 1020.0
20200712021829 63 255 0.0 4.0 0.00 0.00 0.00 77 1020.0
20200712020329 63 258 0.0 4.0 0.00 0.00 0.00 77 1020.0
20200712014841 64 264 1.0 6.0 0.00 0.00 0.00 75 1020.0
20200712013337 63 223 2.0 6.0 0.00 0.00 0.00 75 1019.9
20200712011834 64 273 1.0 4.0 0.00 0.00 0.00 74 1020.0
20200712010330 64 261 2.0 6.0 0.00 0.00 0.00 74 1020.0
20200712004845 65 232 1.0 2.0 0.00 0.00 0.00 72 1020.1
20200712003344 65 230 0.0 1.0 0.00 0.00 0.00 72 1020.2
20200712001842 64 226 0.0 6.0 0.00 0.00 0.00 74 1020.3
20200712000341 64 186 1.0 4.0 0.00 0.00 0.00 73 1020.3
20200711234837 64 219 1.0 5.0 0.00 0.00 0.00 73 1020.4
20200711233335 64 219 1.0 5.0 0.00 0.00 0.00 73 1020.3
20200711231833 64 221 0.0 4.0 0.00 0.00 0.00 74 1020.3
20200711230327 63 221 0.0 4.0 0.00 0.00 0.00 74 1020.2
20200711224839 63 254 1.0 10.0 0.00 0.00 0.00 73 1020.1
20200711223337 64 217 3.0 8.0 0.00 0.00 0.00 72 1020.3
20200711221830 64 272 2.0 5.0 0.00 0.00 0.00 71 1020.1
20200711220332 65 269 1.0 7.0 0.00 0.00 0.00 70 1020.0
20200711214826 65 311 2.0 8.0 0.00 0.00 0.00 70 1019.8
20200711213341 65 267 0.0 9.0 0.00 0.00 0.00 69 1019.8
20200711211840 66 232 2.0 8.0 0.00 0.00 0.00 70 1019.7
20200711210335 66 274 3.0 7.0 0.00 0.00 0.00 71 1019.6
20200711204829 66 317 3.0 7.0 0.00 0.00 0.00 69 1019.7
20200711203328 67 244 2.0 8.0 0.00 0.00 0.00 68 1019.8
20200711201842 66 273 1.0 9.0 0.00 0.00 0.00 71 1019.8
20200711200338 66 296 3.0 9.0 0.00 0.00 0.00 68 1019.6
20200711194836 67 292 2.0 7.0 0.00 0.00 0.00 69 1019.5
20200711193331 66 269 3.0 10.0 0.00 0.00 0.00 67 1019.6
20200711191831 66 227 4.0 8.0 0.00 0.00 0.00 67 1019.6
20200711190327 66 240 2.0 6.0 0.00 0.00 0.00 68 1019.4
20200711184841 64 286 2.0 6.0 0.00 0.00 0.00 71 1019.5
20200711183343 64 305 3.0 10.0 0.00 0.00 0.00 72 1019.6
20200711181836 63 281 3.0 8.0 0.00 0.00 0.00 74 1019.6
20200711180331 62 251 2.0 8.0 0.00 0.00 0.00 76 1019.5
20200711174829 62 198 3.0 7.0 0.00 0.00 0.00 75 1019.3
20200711173344 62 277 3.0 8.0 0.00 0.00 0.00 76 1019.3
20200711170328 63 223 3.0 11.0 0.00 0.00 0.00 77 1019.1
20200711164842 62 342 1.0 8.0 0.00 0.00 0.00 77 1019.0
20200711163337 62 219 2.0 9.0 0.00 0.00 0.00 78 1018.9
20200711161835 61 207 2.0 6.0 0.00 0.00 0.00 79 1018.8
20200711160329 60 238 4.0 8.0 0.00 0.00 0.00 79 1018.7
20200711154827 61 252 0.0 6.0 0.00 0.00 0.00 80 1018.7
20200711153342 60 221 0.0 4.0 0.00 0.00 0.00 84 1018.5
20200711151837 58 280 0.0 4.0 0.00 0.00 0.00 88 1018.6
20200711150339 57 281 0.0 0.0 0.00 0.00 0.00 91 1018.6
20200711144833 55 281 0.0 3.0 0.00 0.00 0.00 94 1018.8
20200711143328 54 281 0.0 1.0 0.00 0.00 0.00 95 1018.8
20200711141844 53 281 0.0 0.0 0.00 0.00 0.00 96 1018.7
20200711140340 52 281 0.0 0.0 0.00 0.00 0.00 96 1018.8
20200711134840 50 281 0.0 0.0 0.00 0.00 0.00 96 1018.8
20200711133336 48 281 0.0 0.0 0.00 0.00 0.00 95 1018.7
20200711131828 46 281 0.0 0.0 0.00 0.00 0.00 95 1018.7
20200711130327 45 281 0.0 0.0 0.00 0.00 0.00 94 1018.6
20200711124843 46 281 0.0 0.0 0.00 0.00 0.00 94 1018.7
20200711123339 46 281 0.0 0.0 0.00 0.00 0.00 95 1018.8
20200711121835 46 281 0.0 0.0 0.00 0.00 0.00 94 1018.6
20200711120332 46 281 0.0 0.0 0.00 0.00 0.00 94 1018.7
20200711114829 46 281 0.0 0.0 0.00 0.00 0.00 94 1018.6
20200711113344 47 281 0.0 0.0 0.00 0.00 0.00 94 1018.5
20200711111837 47 281 0.0 0.0 0.00 0.00 0.00 93 1018.4
20200711110338 47 281 0.0 0.0 0.00 0.00 0.00 93 1018.5
20200711104834 48 281 0.0 0.0 0.00 0.00 0.00 93 1018.4
20200711103329 48 281 0.0 0.0 0.00 0.00 0.00 93 1018.5
20200711101846 49 281 0.0 0.0 0.00 0.00 0.00 92 1018.6
20200711100343 49 281 0.0 0.0 0.00 0.00 0.00 92 1018.6
20200711094836 49 281 0.0 0.0 0.00 0.00 0.00 91 1018.7
20200711093337 50 281 0.0 0.0 0.00 0.00 0.00 91 1018.8
20200711090330 52 281 0.0 0.0 0.00 0.00 0.00 90 1018.9
20200711083331 54 281 0.0 0.0 0.00 0.00 0.00 88 1018.9
20200711081830 55 281 0.0 0.0 0.00 0.00 0.00 88 1019.0
20200711080346 55 281 0.0 0.0 0.00 0.00 0.00 88 1019.1
20200711074839 55 281 0.0 3.0 0.00 0.00 0.00 88 1019.1
20200711073338 55 281 0.0 0.0 0.00 0.00 0.00 87 1019.1
20200711071831 56 281 0.0 0.0 0.00 0.00 0.00 86 1019.1
20200711070326 57 281 0.0 0.0 0.00 0.00 0.00 85 1019.1
20200711064825 57 281 0.0 0.0 0.00 0.00 0.00 85 1019.1
20200711063344 57 281 0.0 0.0 0.00 0.00 0.00 84 1019.1
20200711061837 57 281 0.0 0.0 0.00 0.00 0.00 83 1019.1
20200711060336 58 281 0.0 0.0 0.00 0.00 0.00 81 1019.2
20200711054827 59 281 0.0 0.0 0.00 0.00 0.00 79 1019.3
20200711053347 60 281 0.0 0.0 0.00 0.00 0.00 78 1019.3
20200711051841 61 281 1.0 4.0 0.00 0.00 0.00 77 1019.3
20200711050338 61 283 1.0 2.0 0.00 0.00 0.00 76 1019.4
20200711044836 62 283 0.0 0.0 0.00 0.00 0.00 75 1019.3
20200711043332 62 283 0.0 0.0 0.00 0.00 0.00 74 1019.3
20200711041846 64 283 0.0 0.0 0.00 0.00 0.00 70 1019.3
20200711040345 65 283 0.0 2.0 0.00 0.00 0.00 66 1019.2
20200711034839 67 283 0.0 1.0 0.00 0.00 0.00 62 1019.1
20200711033339 69 283 0.0 0.0 0.00 0.00 0.00 60 1019.1
20200711031831 70 283 0.0 1.0 0.00 0.00 0.00 58 1019.2